N9CQL Weather Reports


time (UTC)temp
C
wind
direction
speed
KPH
gust
KPH
rain 1hr
cm
rain 24hr
cm
rain mn
cm
humidity
%
barometer
mb
20260906112923 21 45 0.0 0.0 0.00 0.00 0.00 91 1016.9
20260906112419 21 45 0.0 0.0 0.00 0.00 0.00 91 1017.0
20260906111914 21 16 0.0 0.0 0.00 0.00 0.00 91 1016.9
20260906111413 21 17 0.0 0.0 0.00 0.00 0.00 91 1017.0
20260906110908 21 16 0.0 0.0 0.00 0.00 0.00 91 1016.9
20260906110404 21 16 0.0 0.0 0.00 0.00 0.00 91 1016.8
20260906105903 21 22 0.0 0.0 0.00 0.00 0.00 92 1016.8
20260906105359 21 23 0.0 0.0 0.00 0.00 0.00 92 1016.9
20260906104854 20 23 0.0 0.0 0.00 0.00 0.00 92 1016.2
20260906104353 20 23 0.0 0.0 0.00 0.00 0.00 91 1016.4
20260906103852 21 23 0.0 0.0 0.00 0.00 0.00 91 1016.5
20260906103350 21 23 0.0 0.0 0.00 0.00 0.00 91 1016.4
20260906102846 21 23 0.0 0.0 0.00 0.00 0.00 91 1016.5
20260906102345 21 23 0.0 0.0 0.00 0.00 0.00 91 1016.3
20260906101840 21 23 0.0 0.0 0.00 0.00 0.00 90 1016.4
20260906101335 21 23 0.0 0.0 0.00 0.00 0.00 90 1016.2
20260906100831 21 23 0.0 0.0 0.00 0.00 0.00 90 1016.3
20260906100330 21 23 0.0 0.0 0.00 0.00 0.00 90 1016.3
20260906095825 21 23 0.0 0.0 0.00 0.00 0.00 90 1016.3
20260906095321 21 23 0.0 0.0 0.00 0.00 0.00 89 1016.2
20260906094820 21 23 0.0 0.0 0.00 0.00 0.00 89 1016.3
20260906094315 21 23 0.0 0.0 0.00 0.00 0.00 89 1016.1
20260906093812 21 23 0.0 0.0 0.00 0.00 0.00 89 1016.1
20260906093307 21 23 0.0 0.0 0.00 0.00 0.00 89 1016.2
20260906092801 22 23 0.0 0.0 0.00 0.00 0.00 88 1016.3
20260906092256 22 23 0.0 0.0 0.00 0.00 0.00 88 1016.3
20260906091752 22 23 0.0 0.0 0.00 0.00 0.00 88 1016.1
20260906091248 22 23 0.0 0.0 0.00 0.00 0.00 88 1016.0
20260906090744 22 23 0.0 0.0 0.00 0.00 0.00 88 1016.1
20260906090243 22 23 0.0 0.0 0.00 0.00 0.00 88 1016.2
20260906085742 22 24 0.0 0.0 0.00 0.00 0.00 88 1016.1
20260906085242 22 23 0.0 0.0 0.00 0.00 0.00 88 1016.1
20260906084736 22 23 0.0 0.0 0.00 0.00 0.00 88 1016.1
20260906084231 22 23 0.0 0.0 0.00 0.00 0.00 88 1016.2
20260906083726 22 22 0.0 0.0 0.00 0.00 0.00 87 1016.2
20260906083221 22 36 0.0 0.0 0.00 0.00 0.00 87 1016.1
20260906082716 22 36 0.0 0.0 0.00 0.00 0.00 87 1015.9
20260906082211 22 35 0.0 0.0 0.00 0.00 0.00 87 1016.2
20260906081708 22 55 0.0 0.0 0.00 0.00 0.00 87 1015.9
20260906081202 22 54 0.0 0.0 0.00 0.00 0.00 86 1016.2
20260906080659 22 52 0.0 0.0 0.00 0.00 0.00 86 1016.2
20260906080155 22 52 0.0 0.0 0.00 0.00 0.00 86 1016.4
20260906075654 22 70 0.0 0.0 0.00 0.00 0.00 86 1016.2
20260906075149 22 88 0.0 0.0 0.00 0.00 0.00 85 1016.4
20260906074644 22 56 0.0 0.0 0.00 0.00 0.00 85 1016.3
20260906074143 22 8 0.0 0.0 0.00 0.00 0.00 85 1016.3
20260906073638 22 97 0.0 0.0 0.00 0.00 0.00 86 1016.1
20260906073134 22 10 0.0 0.0 0.00 0.00 0.00 85 1016.0
20260906072629 22 0 3.2 3.2 0.00 0.00 0.00 86 1016.0
20260906072124 22 56 0.0 1.6 0.00 0.00 0.00 86 1016.1
20260906071621 22 258 0.0 0.0 0.00 0.00 0.00 86 1016.4
20260906071115 22 52 0.0 1.6 0.00 0.00 0.00 86 1016.4
20260906070612 22 4 1.6 1.6 0.00 0.00 0.00 87 1016.4
20260906070107 22 57 0.0 0.0 0.00 0.00 0.00 88 1016.5
20260906065606 22 60 0.0 0.0 0.00 0.00 0.00 88 1016.3
20260906065102 22 47 0.0 0.0 0.00 0.00 0.00 88 1016.3
20260906064558 22 47 0.0 0.0 0.00 0.00 0.00 87 1016.3
20260906064052 22 74 0.0 0.0 0.00 0.00 0.00 87 1016.2
20260906063548 22 40 0.0 0.0 0.00 0.00 0.00 87 1016.2
20260906063044 22 22 0.0 0.0 0.00 0.00 0.00 87 1016.0
20260906062539 22 43 0.0 0.0 0.00 0.00 0.00 88 1016.4
20260906062033 22 70 0.0 0.0 0.00 0.00 0.00 87 1016.1
20260906061529 22 99 0.0 1.6 0.00 0.00 0.00 87 1016.3
20260906061028 22 33 0.0 0.0 0.00 0.00 0.00 88 1016.5
20260906060525 22 28 0.0 0.0 0.00 0.00 0.00 88 1016.5
20260906060022 22 28 0.0 0.0 0.00 0.00 0.00 88 1016.4
20260906055518 22 10 0.0 1.6 0.00 0.00 0.00 88 1016.4
20260906055013 22 36 0.0 0.0 0.00 0.00 0.00 88 1016.3
20260906054507 22 46 0.0 0.0 0.00 0.00 0.00 88 1016.3
20260906054003 22 34 0.0 0.0 0.00 0.00 0.00 87 1016.3
20260906053459 22 54 0.0 0.0 0.00 0.00 0.00 87 1016.3
20260906052954 22 353 1.6 3.2 0.00 0.00 0.00 87 1016.1
20260906052450 22 355 3.2 3.2 0.00 0.00 0.00 88 1015.8
20260906051947 22 22 0.0 0.0 0.00 0.00 0.00 88 1015.9
20260906051442 22 47 0.0 0.0 0.00 0.00 0.00 88 1015.9
20260906050937 22 33 0.0 1.6 0.00 0.00 0.00 87 1015.9
20260906050437 22 321 3.2 3.2 0.00 0.00 0.00 87 1015.9
20260906045936 22 355 0.0 0.0 0.00 0.00 0.00 88 1016.0
20260906045435 22 34 0.0 0.0 0.00 0.00 0.00 88 1016.0
20260906044932 22 37 0.0 0.0 0.00 0.00 0.00 87 1015.7
20260906044426 22 357 3.2 3.2 0.00 0.00 0.00 87 1015.6
20260906043921 22 24 0.0 0.0 0.00 0.00 0.00 87 1015.8
20260906043417 22 324 3.2 3.2 0.00 0.00 0.00 87 1015.7
20260906042913 22 75 0.0 0.0 0.00 0.00 0.00 87 1015.4
20260906042412 22 128 0.0 1.6 0.00 0.00 0.00 87 1015.3
20260906041907 22 98 0.0 0.0 0.00 0.00 0.00 87 1015.4
20260906041403 22 93 0.0 0.0 0.00 0.00 0.00 87 1015.3
20260906040857 22 59 0.0 0.0 0.00 0.00 0.00 87 1015.3
20260906040352 22 153 1.6 1.6 0.00 0.00 0.00 87 1015.3
20260906035848 22 118 1.6 1.6 0.00 0.00 0.00 87 1015.3
20260906035343 22 23 0.0 0.0 0.00 0.00 0.00 87 1015.2
20260906034838 22 49 0.0 0.0 0.00 0.00 0.00 87 1015.3
20260906034333 22 25 0.0 0.0 0.00 0.00 0.00 87 1014.9
20260906033829 22 325 4.8 8.0 0.00 0.00 0.00 87 1015.0
20260906033328 22 7 4.8 4.8 0.00 0.00 0.00 87 1015.2
20260906032825 23 13 4.8 8.0 0.00 0.00 0.00 87 1015.2
20260906032320 23 7 1.6 3.2 0.00 0.00 0.00 87 1015.2
20260906031815 23 19 0.0 1.6 0.00 0.00 0.00 87 1015.3
20260906031311 23 35 0.0 0.0 0.00 0.00 0.00 87 1015.2
20260906030810 23 25 0.0 0.0 0.00 0.00 0.00 86 1015.4
20260906030305 23 20 0.0 1.6 0.00 0.00 0.00 86 1015.4
20260906025804 23 85 0.0 0.0 0.00 0.00 0.00 86 1015.2
20260906025259 23 354 1.6 1.6 0.00 0.00 0.00 86 1015.4
20260906024758 23 99 0.0 0.0 0.00 0.00 0.00 86 1015.2
20260906024252 23 51 3.2 3.2 0.00 0.00 0.00 86 1015.3
20260906023748 23 305 1.6 3.2 0.00 0.00 0.00 86 1015.1
20260906023243 23 320 0.0 0.0 0.00 0.00 0.00 86 1015.0
20260906022738 23 46 0.0 0.0 0.00 0.00 0.00 86 1015.0
20260906022233 23 30 0.0 0.0 0.00 0.00 0.00 86 1015.0
20260906021730 23 25 1.6 1.6 0.00 0.00 0.00 86 1015.3
20260906021228 23 122 0.0 0.0 0.00 0.00 0.00 86 1015.2
20260906020723 23 219 1.6 3.2 0.00 0.00 0.00 86 1015.1
20260906020217 23 347 6.4 11.3 0.00 0.00 0.00 86 1015.1
20260906015712 23 201 3.2 4.8 0.00 0.00 0.00 86 1015.4
20260906015211 22 312 3.2 3.2 0.00 0.00 0.00 86 1015.3
20260906014711 22 191 3.2 3.2 0.00 0.00 0.00 86 1015.2
20260906014207 23 49 0.0 1.6 0.00 0.00 0.00 86 1015.4
20260906013703 23 311 3.2 4.8 0.00 0.00 0.00 86 1015.4
20260906013157 22 26 0.0 0.0 0.00 0.00 0.00 87 1015.1
20260906012658 23 20 1.6 1.6 0.00 0.00 0.00 86 1015.2
20260906012152 22 14 0.0 1.6 0.00 0.00 0.00 87 1015.3
20260906011648 22 301 3.2 9.7 0.00 0.00 0.00 87 1015.2
20260906011142 22 273 4.8 8.0 0.00 0.00 0.00 87 1015.0
20260906010638 22 71 0.0 0.0 0.00 0.00 0.00 87 1015.0
20260906010134 22 31 1.6 3.2 0.00 0.00 0.00 87 1015.2
20260906005633 22 11 0.0 0.0 0.00 0.00 0.00 87 1015.0
20260906005133 22 0 0.0 3.2 0.00 0.00 0.00 87 1014.9
20260906004632 22 20 4.8 4.8 0.00 0.00 0.00 87 1014.7
20260906004127 22 35 3.2 8.0 0.00 0.00 0.00 87 1014.6
20260906003622 22 104 1.6 3.2 0.00 0.00 0.00 87 1014.7
20260906003118 22 35 1.6 3.2 0.00 0.00 0.00 86 1014.7
20260906002613 22 32 0.0 0.0 0.00 0.00 0.00 86 1014.6
20260906002108 22 32 0.0 1.6 0.00 0.00 0.00 86 1014.8
20260906001603 22 16 3.2 3.2 0.00 0.00 0.00 86 1014.4
20260906001057 22 353 3.2 3.2 0.00 0.00 0.00 86 1014.5
20260906000553 23 3 1.6 3.2 0.00 0.00 0.00 86 1014.7
20260906000048 23 358 3.2 4.8 0.00 0.00 0.00 86 1014.6
20260905235547 23 317 4.8 9.7 0.00 0.00 0.00 86 1014.5
20260905235042 23 10 8.0 11.3 0.00 0.00 0.00 86 1014.5
20260905234538 23 35 1.6 1.6 0.00 0.00 0.00 86 1014.5
20260905234033 23 2 3.2 3.2 0.00 0.00 0.00 86 1014.5
20260905233533 23 3 4.8 9.7 0.00 0.00 0.00 86 1014.6
20260905233033 23 298 3.2 4.8 0.00 0.00 0.00 86 1014.5
20260905232528 23 359 1.6 1.6 0.00 0.00 0.00 86 1014.4
20260905232024 24 39 3.2 4.8 0.00 0.00 0.00 85 1014.3
20260905231519 24 3 4.8 4.8 0.00 0.00 0.00 84 1014.2
20260905231015 24 291 8.0 11.3 0.00 0.00 0.00 84 1014.2
20260905230514 24 235 4.8 4.8 0.00 0.00 0.00 84 1014.4
20260905230013 25 33 1.6 3.2 0.00 0.00 0.00 83 1014.1
20260905225507 25 328 8.0 11.3 0.00 0.00 0.00 83 1014.3
20260905225003 25 342 4.8 8.0 0.00 0.00 0.00 82 1014.2
20260905224458 25 305 1.6 4.8 0.00 0.00 0.00 81 1013.7
20260905223957 25 299 4.8 11.3 0.00 0.00 0.00 80 1013.9
20260905223455 26 323 6.4 8.0 0.00 0.00 0.00 79 1014.1
20260905222949 26 294 3.2 3.2 0.00 0.00 0.00 77 1014.0
20260905222444 26 127 1.6 1.6 0.00 0.00 0.00 78 1013.6
20260905221940 26 315 1.6 1.6 0.00 0.00 0.00 78 1014.0
20260905221436 26 322 0.0 3.2 0.00 0.00 0.00 77 1013.9
20260905220932 27 326 1.6 1.6 0.00 0.00 0.00 77 1013.9
20260905220428 27 5 1.6 1.6 0.00 0.00 0.00 75 1014.0
20260905215926 26 243 4.8 8.0 0.00 0.00 0.00 76 1014.0
20260905215422 26 7 1.6 1.6 0.00 0.00 0.00 77 1013.6
20260905214919 26 28 4.8 9.7 0.00 0.00 0.00 78 1014.0
20260905214414 27 359 1.6 3.2 0.00 0.00 0.00 77 1013.9
20260905213914 26 300 0.0 1.6 0.00 0.00 0.00 77 1013.6
20260905213410 27 6 0.0 1.6 0.00 0.00 0.00 76 1013.6
20260905212906 26 90 0.0 0.0 0.00 0.00 0.00 77 1013.6
20260905212401 26 8 1.6 3.2 0.00 0.00 0.00 76 1013.6
20260905211900 26 11 0.0 1.6 0.00 0.00 0.00 77 1013.5
20260905211355 26 18 6.4 8.0 0.00 0.00 0.00 75 1013.4
20260905210852 27 89 1.6 1.6 0.00 0.00 0.00 75 1013.6
20260905210351 26 33 3.2 3.2 0.00 0.00 0.00 76 1013.9
20260905205850 26 27 4.8 4.8 0.00 0.00 0.00 79 1013.6
20260905205345 26 323 4.8 4.8 0.00 0.00 0.00 79 1013.9
20260905204844 26 313 1.6 1.6 0.00 0.00 0.00 79 1013.7
20260905204341 26 346 0.0 0.0 0.00 0.00 0.00 79 1014.1
20260905203839 26 323 4.8 11.3 0.00 0.00 0.00 78 1013.7
20260905203335 26 357 8.0 11.3 0.00 0.00 0.00 78 1014.1
20260905202831 27 336 6.4 8.0 0.00 0.00 0.00 77 1013.7
20260905202325 26 21 0.0 1.6 0.00 0.00 0.00 77 1013.6
20260905201821 26 28 1.6 1.6 0.00 0.00 0.00 79 1013.6
20260905201316 27 13 6.4 9.7 0.00 0.00 0.00 77 1014.0
20260905200810 27 160 1.6 3.2 0.00 0.00 0.00 77 1013.9
20260905200307 27 36 0.0 0.0 0.00 0.00 0.00 77 1014.0
20260905195804 27 353 4.8 11.3 0.00 0.00 0.00 78 1013.7
20260905195259 27 273 3.2 3.2 0.00 0.00 0.00 78 1013.7
20260905194755 26 262 4.8 8.0 0.00 0.00 0.00 78 1013.9
20260905194254 26 4 0.0 1.6 0.00 0.00 0.00 79 1013.9
20260905193749 26 27 3.2 3.2 0.00 0.00 0.00 79 1014.2
20260905193244 26 8 6.4 8.0 0.00 0.00 0.00 79 1014.0
20260905192739 27 308 1.6 1.6 0.00 0.00 0.00 78 1014.2
20260905192235 27 352 4.8 4.8 0.00 0.00 0.00 77 1014.0
20260905191734 27 27 1.6 3.2 0.00 0.00 0.00 76 1014.0
20260905191233 27 25 1.6 3.2 0.00 0.00 0.00 78 1014.1
20260905190732 26 32 0.0 1.6 0.00 0.00 0.00 79 1014.1
20260905190231 27 6 3.2 8.0 0.00 0.00 0.00 78 1014.2
20260905185730 26 32 3.2 4.8 0.00 0.00 0.00 79 1014.2
20260905185225 27 20 1.6 3.2 0.00 0.00 0.00 78 1014.2
20260905184719 27 62 0.0 0.0 0.00 0.00 0.00 79 1014.0
20260905184218 27 56 1.6 1.6 0.00 0.00 0.00 79 1013.9
20260905183712 27 5 4.8 4.8 0.00 0.00 0.00 77 1014.3
20260905183207 28 32 3.2 4.8 0.00 0.00 0.00 75 1014.1
20260905182707 28 324 6.4 8.0 0.00 0.00 0.00 75 1014.1
20260905182207 28 257 0.0 3.2 0.00 0.00 0.00 75 1014.2
20260905181702 28 44 1.6 1.6 0.00 0.00 0.00 74 1014.3
20260905181201 28 323 1.6 3.2 0.00 0.00 0.00 73 1014.0
20260905180655 28 211 3.2 3.2 0.00 0.00 0.00 77 1014.2
20260905180151 28 303 4.8 8.0 0.00 0.00 0.00 76 1013.9
20260905175650 28 78 0.0 0.0 0.00 0.00 0.00 75 1013.9
20260905175146 28 38 1.6 1.6 0.00 0.00 0.00 75 1013.7
20260905174641 27 295 3.2 3.2 0.00 0.00 0.00 77 1014.1
20260905174137 28 49 1.6 1.6 0.00 0.00 0.00 76 1014.3
20260905173632 30 309 3.2 4.8 0.00 0.00 0.00 71 1014.1
20260905173128 30 291 4.8 8.0 0.00 0.00 0.00 70 1013.7
20260905172627 30 28 1.6 3.2 0.00 0.00 0.00 72 1014.1
20260905172122 29 102 0.0 0.0 0.00 0.00 0.00 74 1013.9
20260905171618 28 343 4.8 9.7 0.00 0.00 0.00 75 1014.0
20260905171114 28 26 3.2 3.2 0.00 0.00 0.00 75 1014.0
20260905170610 29 54 1.6 3.2 0.00 0.00 0.00 73 1014.1
20260905170105 28 8 1.6 1.6 0.00 0.00 0.00 76 1014.0
20260905165600 28 304 6.4 8.0 0.00 0.00 0.00 76 1014.0
20260905165055 28 198 6.4 8.0 0.00 0.00 0.00 77 1014.1
20260905164550 28 27 0.0 0.0 0.00 0.00 0.00 76 1014.1
20260905164044 28 328 8.0 9.7 0.00 0.00 0.00 75 1014.3
20260905163540 28 32 3.2 8.0 0.00 0.00 0.00 75 1014.3
20260905163036 28 20 0.0 0.0 0.00 0.00 0.00 75 1014.2
20260905162532 28 318 4.8 9.7 0.00 0.00 0.00 76 1014.1
20260905162027 28 347 3.2 4.8 0.00 0.00 0.00 75 1014.2
20260905161526 28 93 0.0 0.0 0.00 0.00 0.00 75 1014.1
20260905161024 28 90 3.2 3.2 0.00 0.00 0.00 76 1014.1
20260905160517 28 343 3.2 4.8 0.00 0.00 0.00 76 1014.1
20260905160018 28 11 3.2 4.8 0.00 0.00 0.00 77 1014.1
20260905155518 27 315 8.0 11.3 0.00 0.00 0.00 77 1014.1
20260905155016 27 122 1.6 3.2 0.00 0.00 0.00 77 1013.9
20260905154512 27 66 0.0 1.6 0.00 0.00 0.00 78 1013.9
20260905154007 27 24 1.6 3.2 0.00 0.00 0.00 78 1014.1
20260905153503 27 25 0.0 0.0 0.00 0.00 0.00 78 1014.0
20260905153003 27 0 0.0 0.0 0.00 0.00 0.00 79 1013.7
20260905152502 27 325 1.6 3.2 0.00 0.00 0.00 79 1013.9
20260905151957 27 55 0.0 0.0 0.00 0.00 0.00 80 1013.9
20260905151452 27 6 6.4 8.0 0.00 0.00 0.00 79 1013.7
20260905150947 27 347 3.2 3.2 0.00 0.00 0.00 79 1013.7
20260905150442 27 95 0.0 0.0 0.00 0.00 0.00 80 1013.6
20260905145938 26 3 6.4 9.7 0.00 0.00 0.00 80 1013.6
20260905145433 26 6 3.2 3.2 0.00 0.00 0.00 80 1013.9
20260905144933 26 235 0.0 1.6 0.00 0.00 0.00 81 1013.6
20260905144428 27 40 0.0 1.6 0.00 0.00 0.00 80 1013.5
20260905143927 27 61 0.0 0.0 0.00 0.00 0.00 81 1013.5
20260905143420 26 28 0.0 1.6 0.00 0.00 0.00 82 1013.5
20260905142915 26 356 0.0 0.0 0.00 0.00 0.00 82 1013.3
20260905142414 26 348 3.2 4.8 0.00 0.00 0.00 82 1013.4
20260905141910 26 22 1.6 1.6 0.00 0.00 0.00 83 1013.1
20260905141405 26 43 0.0 0.0 0.00 0.00 0.00 84 1013.1
20260905140901 26 311 4.8 8.0 0.00 0.00 0.00 85 1013.1
20260905140356 25 56 0.0 0.0 0.00 0.00 0.00 86 1013.1
20260905135854 25 45 0.0 0.0 0.00 0.00 0.00 87 1013.1
20260905135350 25 336 4.8 9.7 0.00 0.00 0.00 88 1013.3
20260905134846 25 17 0.0 0.0 0.00 0.00 0.00 89 1012.9
20260905134344 24 48 1.6 1.6 0.00 0.00 0.00 89 1013.4
20260905133838 24 47 4.8 8.0 0.00 0.00 0.00 90 1013.4
20260905133334 24 1 4.8 9.7 0.00 0.00 0.00 90 1013.4
20260905132833 24 280 4.8 9.7 0.00 0.00 0.00 91 1013.5
20260905132329 24 26 3.2 3.2 0.00 0.00 0.00 91 1013.5
20260905131822 24 28 4.8 4.8 0.00 0.00 0.00 91 1013.5
20260905131318 24 0 3.2 3.2 0.00 0.00 0.00 91 1013.1
20260905130813 23 6 3.2 4.8 0.00 0.00 0.00 91 1013.2
20260905130312 23 3 3.2 4.8 0.00 0.00 0.00 92 1013.2
20260905125808 23 356 0.0 0.0 0.00 0.00 0.00 92 1013.2
20260905125306 23 15 0.0 1.6 0.00 0.00 0.00 92 1012.8
20260905124759 23 23 0.0 0.0 0.00 0.00 0.00 92 1012.9
20260905124255 23 282 1.6 4.8 0.00 0.00 0.00 92 1012.7
20260905123750 23 8 1.6 3.2 0.00 0.00 0.00 92 1012.8
20260905123247 23 45 0.0 0.0 0.00 0.00 0.00 92 1012.7
20260905122746 23 74 3.2 3.2 0.00 0.00 0.00 92 1012.6
20260905122240 23 349 3.2 4.8 0.00 0.00 0.00 92 1012.8
20260905121736 23 11 0.0 1.6 0.00 0.00 0.00 92 1012.6
20260905121232 23 356 4.8 8.0 0.00 0.00 0.00 91 1012.5
20260905120730 23 18 0.0 0.0 0.00 0.00 0.00 91 1012.6
20260905120225 24 7 1.6 3.2 0.00 0.00 0.00 91 1012.6
20260905115720 24 35 0.0 0.0 0.00 0.00 0.00 91 1012.3
20260905115220 23 11 1.6 1.6 0.00 0.00 0.00 91 1012.2
20260905114715 24 29 0.0 1.6 0.00 0.00 0.00 91 1012.0
20260905114212 24 30 0.0 1.6 0.00 0.00 0.00 91 1012.0
20260905113707 24 28 0.0 0.0 0.00 0.00 0.00 91 1012.0
20260905113203 24 31 0.0 0.0 0.00 0.00 0.00 91 1011.9